Location: Newark
(47.5833°N, 8.1500°E)
Time: 18:22:55
(UTC+00:00)

Transit 2A - Pass Details

Date: 29 October 2020
Orbit: 595 x 964 km, 66.7° (Epoch: 01 December)

Event Time Altitude Azimuth Distance (km) Brightness Sun altitude
Rises 00:59:55 0° 223° (SW) 3,626 - -49.1°
Reaches altitude 10° 01:02:30 10° 226° (SW) 2,693 - -48.8°
Maximum altitude 01:08:50 65° 308° (NW) 1,046 - -48.1°
Exits shadow 01:14:30 13° 30° (NNE) 2,449 9.0 -47.4°
Drops below altitude 10° 01:15:01 10° 31° (NNE) 2,634 9.3 -47.3°
Sets 01:17:32 0° 34° (NE) 3,541 10.1 -47.0°
